DMSP 5D-2 F13 DEB, 40436

Orbit data source: Space-Track

DMSP 5D-2 F13 DEB, 40436 is space debris in SSO originally from a launch on Fri, 24 Mar 1995 UTC launched from the Air Force Western Test Range (AFWTR). Debris objects in space refer to the collection of defunct objects orbiting the Earth. Examples of debris include non-operational satellites, rocket bodies, and fragments generated from explosions, collisions, or faulty payload assembly.

Loading next visibility...
Identifier
40436, 1995-015AN
Orbit
SSO
Last TLE update
1 day ago
Origin
Manufacturer
Unknown
Mission
Spacecraft
Bus & Motor
Unknown
Mass
Unknown
Launch date (UTC)
1995-03-24 (30 years ago)
Launch vehicle
Unknown
Launch site
Air Force Western Test Range (AFWTR)
Object type
Payload
Rocket body
Debris
Shape & HBR
Unknown
Radar Cross Section
Small (<0.1 m²)

Expand to show TLE details & history

TLE from 1 day ago
0 DMSP 5D-2 F13 DEB
1 40436U 95015AN  25181.20812422  .00000172  00000-0  19708-3 0  9993
2 40436  98.8790 281.1354 0228948 338.8997  20.2822 13.71212358516038
Epoch: 2025-06-30T04:59Z
TLE epoch observation values (Epoch: 2025-06-30T04:59:41.932Z)
Latitude
-0.00009°
Longitude
-72.31054°
Altitude
840.172 km
Speed
7.512 km/s
True Right ascension
18h 44m 32s
True Declination
0° 00' 00"
Sunlit
Object was in full shadow at epoch
Visualization orbit readout
Latitude
56.09025°
Longitude
122.02648°
Altitude
1,144.657 km
Speed
7.216 km/s
Apparent Right ascension
06h 38m 26s
Apparent Declination
13° 42' 51"
Sunlit
Object is in daylight
Visualization observer readout
Local Sidereal Time
17:44:09
Azimuth
343.863° N
Elevation
-34.903°
Doppler factor
1
Orbital elements
Apogee altitude
1,161.2 km
Perigee altitude
823.704 km
Semi-major axis
7,370.589 km
Eccentricity
0.02289
Inclination
98.879°
RAAN
281.1354°
Arg. of periapsis
338.8997°
True anomaly
Unknown
Mean anomaly
20.2822°
Eccentric anomaly
Unknown
Mean motion
3.42997 °/min
Orbital period
104.96 mins
BSTAR
0.00019708
Loading maneuver chart data...
Loading SW <> Apogee altitude chart data...

DMSP 5D-2 F13 DEB Visibility forecast

Observer location: undefined°, undefined°

Span
Click to sort rows by Start time (UTC) header in descending order
Start Az.
Max El. time (UTC)
Max El. Az.
Max El.
End time (UTC)
End Az.
9 mins2025-07-01 07:22:25.238Z201.375° SSW2025-07-01 07:26:25.238Z256.549° W30.815°2025-07-01 07:31:25.238Z326.323° NNW
10 mins2025-07-01 18:23:25.238Z46.807° ENE2025-07-01 18:27:25.238Z90.127° ESE24.673°2025-07-01 18:33:25.238Z149.254° SSE
11 mins2025-07-01 20:06:25.238Z0.73° NNE2025-07-01 20:11:25.238Z292.873° NW39.607°2025-07-01 20:17:25.238Z216.37° SW
|